Location: Molino di Ancona
(43.6167°N, 13.3667°E)
Time: 18:12:28
(UTC+00:00)

USA 234 - Pass Details

Date: 15 December 2019
Orbit: 1099 x 1108 km, 123.0° (Epoch: 20 January)

Event Time Altitude Azimuth Distance (km) Brightness Sun altitude
Rises 04:35:32 0° 48° (NE) 3,923 6.7 -20.3°
Reaches altitude 10° 04:38:01 10° 46° (NE) 2,964 5.9 -19.9°
Maximum altitude 04:44:30 67° 326° (NW) 1,185 3.2 -18.7°
Enters shadow 04:49:31 18° 248° (WSW) 2,418 4.6 -17.9°
